This is the latest recevied weather packets stored in our database for station/object N9ALD. If no packets are shown the sender has not sent any weather packets the latest 10 day(s).
| Time | Temp. | Humidity | Pressure | Rain* | Wind** | Luminosity | Snow |
|---|---|---|---|---|---|---|---|
| 1777526791 | 7.78° C | 79% | 1013.5 hPa | 0 mm | - | 0 W/m² | - |
| 1777526486 | 7.78° C | 78% | 1013.7 hPa | 0 mm | - | 0 W/m² | - |
| 1777526181 | 7.78° C | 78% | 1013.3 hPa | 0 mm | - | 0 W/m² | - |
| 1777525877 | 7.78° C | 78% | 1013.1 hPa | 0 mm | - | 0 W/m² | - |
| 1777525575 | 7.78° C | 77% | 1013.5 hPa | 0 mm | - | 0 W/m² | - |
| 1777525273 | 7.78° C | 77% | 1013.2 hPa | 0 mm | - | 0 W/m² | - |
| 1777524968 | 8.33° C | 77% | 1013.3 hPa | 0 mm | - | 0 W/m² | - |
| 1777524665 | 8.33° C | 77% | 1013.2 hPa | 0 mm | - | 0 W/m² | - |
| 1777524364 | 8.33° C | 78% | 1013.3 hPa | 0 mm | - | 0 W/m² | - |
| 1777524058 | 8.33° C | 79% | 1013.3 hPa | 0 mm | - | 0 W/m² | - |
| 1777523756 | 8.33° C | 80% | 1013.2 hPa | 0 mm | - | 0 W/m² | - |
| 1777523452 | 8.33° C | 79% | 1013.3 hPa | 0 mm | - | 0 W/m² | - |
| 1777523148 | 8.89° C | 78% | 1013.1 hPa | 0 mm | - | 0 W/m² | - |
| 1777522844 | 8.89° C | 78% | 1013 hPa | 0 mm | - | 0 W/m² | - |
| 1777522541 | 8.89° C | 77% | 1012.9 hPa | 0 mm | - | 0 W/m² | - |
| 1777522238 | 9.44° C | 77% | 1012.7 hPa | 0 mm | - | 0 W/m² | - |
| 1777521935 | 9.44° C | 77% | 1012.5 hPa | 0 mm | - | 0 W/m² | - |
| 1777521632 | 9.44° C | 79% | 1012.7 hPa | 0 mm | - | 0 W/m² | - |
| 1777521329 | 9.44° C | 79% | 1012.7 hPa | 0 mm | - | 0 W/m² | - |
| 1777521026 | 10° C | 79% | 1012.7 hPa | 0 mm | - | 0 W/m² | - |
| 1777520723 | 10° C | 78% | 1012.7 hPa | 0 mm | - | 0 W/m² | - |
| 1777520420 | 10° C | 77% | 1012.6 hPa | 0 mm | - | 0 W/m² | - |
| 1777520117 | 10° C | 75% | 1012.5 hPa | 0 mm | - | 0 W/m² | - |
| 1777519815 | 10° C | 72% | 1012.6 hPa | 0 mm | - | 0 W/m² | - |
| 1777519512 | 10° C | 68% | 1012.5 hPa | 0 mm | - | 0 W/m² | - |
* Rain latest hour (hover to see other rain measurements)
** Current wind speed in m/s (hover to see current wind gust speed)